Regional Weather Roundup
Issued by NWS Charleston, SC

Current Version | Previous Version | Graphics & Text | Print | Product List | Glossary On
Versions: 1 2 3 4 5 6 7 8 9 10 11 12 13 14 15 16 17 18 19 20 21 22 23 24 25 26 27 28 29 30 31 32 33 34 35 36 37 38 39 40 41 42 43 44 45 46 47 48 49 50
000
ASUS42 KCHS 250310
RWRCHS
REGIONAL WEATHER ROUNDUP
NATIONAL WEATHER SERVICE CHARLESTON SC
1000 PM EST WED DEC 24 2014

NOTE: "FAIR" INDICATES FEW OR NO CLOUDS BELOW 12,000 FEET WITH NO
SIGNIFICANT WEATHER AND/OR OBSTRUCTIONS TO VISIBILITY.

NOT ALL STATIONS ARE QUALITY CONTROLLED BY THE NATIONAL
WEATHER SERVICE. USE DATA WITH CAUTION...ESPECIALLY
DEWPOINT OBSERVATIONS.

SCZ027-030-031-034>040-042>050-250400-
...SOUTHEAST SOUTH CAROLINA...

CITY           SKY/WX    TMP DP  RH WIND       PRES   REMARKS
N CHARLESTON   MOCLDY    64  62  93 SW8       29.78R
WATERFRONT PRK   N/A     63 N/A N/A SW10        N/A
MOUNT PLEASANT FAIR      64  63  94 S12       29.78R
PINOPOLIS        N/A     66  64  94 S6        29.68R
MONCKS CORNER  LGT RAIN  66  63  88 SW7       29.77R
SUMMERVILLE    CLOUDY    64  64 100 SW6       29.78
BEAUFORT MCAS  CLOUDY    64  63  96 SW8       29.79R
BEAUFORT ARPT  CLOUDY    64  64 100 SW6       29.78F
HILTON HEAD IS MOCLDY    64  64 100 S6        29.81R
WALTERBORO     CLOUDY    66 N/A N/A SW9       29.78S
ALLENDALE      CLOUDY    66  66 100 SW6       29.77R

...SOUTHERN MIDLANDS AND PEE DEE...

CITY           SKY/WX    TMP DP  RH WIND       PRES   REMARKS
GEORGETOWN     NOT AVBL
KINGSTREE      NOT AVBL
ORANGEBURG     CLOUDY    66  63  90 SW13      29.75R
BARNWELL         N/A     66  64  94 SW8       29.77R
AIKEN          LGT RAIN  64  64 100 W18       29.79R
MANNING        CLOUDY    64 N/A N/A S6        29.75R
COLUMBIA       CLOUDY    67  63  87 SW8       29.72S
SUMTER         CLOUDY    64  63  94 SW9       29.72R
FLORENCE       CLOUDY    66  63  90 SW10      29.73R
MYRTLE BEACH   DRIZZLE   61  57  88 S14       29.76F
N MYRTLE BEACH CLOUDY    61  59  93 S15       29.74F

$$

GAZ063-065-086>088-099>101-113>116-118-119-134>141-150-250400-
...SOUTHEAST GEORGIA...

CITY           SKY/WX    TMP DP  RH WIND       PRES   REMARKS
SAVANNAH ARPT  LGT RAIN  66  64  93 SW8       29.81R
HUNTER AAF     CLOUDY    66  66 100 SW8       29.79R
FORT STEWART   CLOUDY    68  64  88 SW17      29.83R
STATESBORO     CLOUDY    66  66 100 SW9       29.81R
SYLVANIA       DRIZZLE   66  66  99 SW7       29.79R
CLAXTON        CLOUDY    66  64  94 SW10G18   29.83R

...CSRA...CENTRAL AND FAR SOUTHEAST GEORGIA...

CITY           SKY/WX    TMP DP  RH WIND       PRES   REMARKS
THOMSON        CLOUDY    59  54  84 W17       29.88R
AUGUSTA-BUSH   LGT RAIN  63  57  81 W14       29.78R
AUGUSTA-DANIEL LGT RAIN  62  53  72 W10G21    29.79R
SWAINSBORO     CLOUDY    63  63 100 W12       29.86R
VIDALIA        CLOUDY    61  57  88 W20G26    29.87R
EASTMAN        LGT RAIN  56  51  84 W15       29.94R
HAZLEHURST     CLOUDY    60  56  87 W10G20    29.89R
ALMA           CLOUDY    63  58  83 W12G22    29.87R
WAYCROSS       LGT RAIN  69  66  92 W13G20    29.87R
JESUP          CLOUDY    70  68  94 W10G21    29.87R
BAXLEY         RAIN      64  61  88 W14G22    29.88R
BRUNSWICK      CLOUDY    68  64  88 SW10      29.86R
SAINT SIMONS   CLOUDY    67  65  93 SW13      29.85R

$$

SCZ027-028-034-036>038-045-046-048>050-GAZ119-141-250400-
...LAKE AND SUPPLEMENTAL COASTAL OBSERVATIONS...

STATION/POSITION TIME  TEMP    WIND        PRES    WAVE   SWELL
                       AIR SEA DIR/SP/G            HT/PER HT/PER/DIR
                 (UTC) (F)     (DEG/KT/KT) (MB)    (FT/S) (FT/S/D)
UPR LAKE MARION  NOT AVBL
WINYAH BAY       0200   63     200/  7     1007.0F
LAKE MURRAY      0200   61     210/  8/  9 1005.8S
ACE BASIN NERRS  NOT AVBL
FORT PULASKI     0300   62 56  200/  6/  8 1009.4R
SAPELO ISLAND    0200   65     200/  6     1009.0S

$$

ANZ835-935-AMZ111-154-330-350-352-354-370-450-454-472-250400-
...C-MAN AND BUOY OBSERVATIONS...

STATION/POSITION TIME  TEMP    WIND        PRES    WAVE   SWELL
                       AIR SEA DIR/SP/G            HT/PER HT/PER/DIR
                 (UTC) (F)     (DEG/KT/KT) (MB)    (FT/S) (FT/S/D)
BUOY 41004       0300   72 74  210/ 16/ 17 1007.9F   7/ 8   5/ 8
BUOY 41008       0300   62 59  190/ 12/ 14 1009.6R   4/ 7   3/140/ 7
FOLLY BEACH CMAN 0200   58     200/  8/  9 1009.0F
CAPERS NEARSHORE 0200   61     190/ 12/ 14   N/A
FRIPP NEARSHORE  NOT AVBL


STATION/POSITION TIME  TEMP    WIND        PRES    WAVE   SWELL
                       AIR SEA DIR/SP/G            HT/PER HT/PER/DIR
                 (UTC) (F)     (DEG/KT/KT) (MB)    (FT/S) (FT/S/D)
5E ST. MARYS GA  0300      62                N/A     4/ 6
FRYING PAN BUOY  0300   70 71  210/ 14/ 17 1009.0R   7/ 8   5/180/ 8
BUOY 41025       0300   75                 1008.8F   9/ 8
CAPE LOOKOUT NC  0200   62     190/  7/  8 1009.0F
BUOY 41002       0246   74 71  190/ 17/ 21 1014.5F   7/ 7   2/ 70/10
BUOY 41010       0300   77 77  190/ 21/ 25 1013.4R   5/ 6   3/230/ 7
ST AUGUSTINE FL  0300   66     260/ 10/ 14 1013.2R


$$



USA.gov is the U.S. government's official web portal to all federal, state and local government web resources and services.